Regional Weather Roundup
Issued by NWS

Home | Current Version | Previous Version | Text Only | Print | Product List | Glossary On
Versions: 1 2 3 4 5 6 7 8 9 10 11 12 13 14 15 16 17 18 19 20 21 22 23 24 25 26 27 28 29 30 31 32 33 34 35 36 37 38 39 40 41 42 43 44 45 46 47 48 49 50
000
ASUS43 KLMK 012210
RWRKY
KENTUCKY REGIONAL WEATHER ROUNDUP
NATIONAL WEATHER SERVICE LOUISVILLE KY
500 PM EST SUN MAR 01 2015

NOTE "FAIR" INDICATES FEW OR NO CLOUDS BELOW 12,000 FEET
WITH NO SIGNIFICANT WEATHER AND/OR OBSTRUCTIONS TO VISIBILITY.

KYZ001>023-026-027-061>063-070>075-012300-
WESTERN AND SOUTH CENTRAL KENTUCKY

CITY           SKY/WX    TMP DP  RH WIND       PRES   REMARKS
PADUCAH        CLOUDY    38  30  73 VRB5      30.33S WCI  34
HENDERSON      CLOUDY    36  30  80 W3        30.33F
OWENSBORO      CLOUDY    37  32  82 NW7       30.34R WCI  31
HOPKINSVILLE   CLOUDY    46  45  93 W7        30.29F FOG
BOWLING GREEN  CLOUDY    49  45  86 SW6       30.30R FOG
GLASGOW        CLOUDY    48  47  99 SW6       30.29R
$$

KYZ024-025-028>034-038-045-046-053-012300-
NORTH CENTRAL KENTUCKY

CITY           SKY/WX    TMP DP  RH WIND       PRES   REMARKS
LOUISVILLE/SDF CLOUDY    40  38  93 W14       30.30R FOG     WCI  32
LOUISVILLE/LOU CLOUDY    39  37  92 NW7       30.31R FOG     WCI  34
FORT KNOX      MIX PCPN  39  39 100 W8        30.28R VSB 1   WCI  34
$$

KYZ035>037-039>044-047>052-055>060-089>105-012300-
NORTHEAST KENTUCKY

CITY           SKY/WX    TMP DP  RH WIND       PRES   REMARKS
LEXINGTON      CLOUDY    41  40  96 SW8       30.25F FOG
COVINGTON      CLOUDY    34  31  88 W7        30.27R FOG     WCI  28
FRANKFORT      FOG       41  40  96 SW6       30.25S VSB 1
$$

KYZ054-064>069-076>088-106>120-012300-
SOUTHEAST KENTUCKY

CITY           SKY/WX    TMP DP  RH WIND       PRES   REMARKS
JACKSON        CLOUDY    42  39  89 SW5       30.27F
LONDON         CLOUDY    49  43  80 SW5       30.29F
SOMERSET       RAIN      45  45 100 S3        30.31S
MIDDLESBORO    FOG       39  39 100 CALM      30.33S VSB 1/4
MONTICELLO     CLOUDY    50  50 100 SW8       30.32F FOG
$$




USA.gov is the U.S. government's official web portal to all federal, state and local government web resources and services.